Weather History for KUIL - November, 2011

Change the Weather History Date:

Sunday, November 6, 2011

  Actual Average Record
Temperature  
Mean Temperature 40 °F 46 °F  
Max Temperature 50 °F 52 °F 61 °F (1967)
Min Temperature 30 °F 40 °F 28 °F (2003)
Degree Days  
Heating Degree Days 25 19  
Month to date heating degree days 112  
Since 1 July heating degree days 1202  
Cooling Degree Days 0 0  
Month to date cooling degree days 0  
Year to date cooling degree days 19  
Moisture  
Dew Point 34 °F    
Average Humidity 91    
Maximum Humidity 100    
Minimum Humidity 63    
Precipitation  
Precipitation T in 0.50 in 3.30 in (2008)
Month to date precipitation 2.90  
Year to date precipitation 73.93  
Sea Level Pressure  
Sea Level Pressure 30.05 in    
Wind  
Wind Speed 1 mph (ENE)    
Max Wind Speed 7 mph    
Max Gust Speed 8 mph    
Visibility 6 miles    
Events Rain    
T = Trace of Precipitation, MM = Missing Value Source: NWS Daily Summary

Daily Weather History Graph

Daily Weather History Graph

Search for Another Location

Airport or City:

Trip Planner

Search our weather history database for the weather conditions in past years. The results will help you decide how hot, cold, wet, or windy it might be!

Date:

Astronomy

Nov. 06, 2011 Rise Set
Actual Time 7:10 AM PST 4:52 PM PST
Civil Twilight 6:37 AM PST 5:25 PM PST
Nautical Twilight 6:00 AM PST 6:02 PM PST
Astronomical Twilight 5:24 AM PST 6:38 PM PST
Moon 2:51 PM PST (11/6) 3:08 AM PST (11/6)
Length of Visible Light 10h 47m
Length of Day
9h 42m
Waxing Gibbous, 86% of the Moon is Illuminated
Nov 6
Waxing Gibbous
Nov 10
Full
Nov 18
Last Quarter
Nov 24
New
Dec 2
First Quarter

Hourly Weather History & Observations

Time (PST) Temp. Windchill Dew Point Humidity Pressure Visibility Wind Dir Wind Speed Gust Speed Precip Events Conditions
12:53 AM 33.1 °F 30.0 °F 32.0 °F 96% 29.85 in 10.0 mi ENE 3.5 mph - N/A   Clear
1:53 AM 33.1 °F 28.7 °F 30.9 °F 92% 29.86 in 10.0 mi NE 4.6 mph - N/A   Clear
1:53 AM 33.1 °F - 32.0 °F 96% 29.87 in 10.0 mi Calm Calm - N/A   Clear
2:53 AM 32.0 °F - 30.9 °F 96% 29.88 in 10.0 mi Calm Calm - N/A   Overcast
3:53 AM 33.1 °F - 30.9 °F 92% 29.88 in 10.0 mi Calm Calm - N/A   Overcast
4:53 AM 34.0 °F 31.0 °F 32.0 °F 92% 29.90 in 10.0 mi East 3.5 mph - N/A   Overcast
5:53 AM 34.0 °F - 33.1 °F 96% 29.91 in 10.0 mi Calm Calm - N/A   Overcast
6:53 AM 35.1 °F - 33.1 °F 92% 29.92 in 10.0 mi Calm Calm - N/A   Overcast
7:53 AM 36.0 °F 32.1 °F 34.0 °F 93% 29.95 in 10.0 mi East 4.6 mph - 0.00 in Rain Light Rain
8:53 AM 37.9 °F - 36.0 °F 93% 29.97 in 10.0 mi Calm Calm - 0.00 in   Overcast
9:53 AM 41.0 °F 39.0 °F 37.0 °F 86% 29.98 in 10.0 mi ENE 3.5 mph - N/A   Mostly Cloudy
10:53 AM 45.0 °F - 39.0 °F 80% 30.01 in 10.0 mi Calm Calm - N/A   Overcast
11:53 AM 46.0 °F - 39.9 °F 79% 30.01 in 10.0 mi Calm Calm - N/A   Overcast
12:53 PM 48.0 °F - 39.0 °F 71% 30.02 in 10.0 mi Calm Calm - N/A   Overcast
1:53 PM 48.0 °F - 41.0 °F 77% 30.04 in 10.0 mi Calm Calm - N/A   Overcast
2:53 PM 48.0 °F - 39.9 °F 74% 30.05 in 10.0 mi NW 3.5 mph - N/A   Overcast
3:53 PM 50.0 °F - 37.9 °F 63% 30.06 in 10.0 mi Calm Calm - N/A   Mostly Cloudy
4:53 PM 43.0 °F - 39.0 °F 86% 30.07 in 10.0 mi Calm Calm - N/A   Partly Cloudy
5:53 PM 37.9 °F - 37.0 °F 97% 30.09 in 8.0 mi Calm Calm - N/A   Mostly Cloudy
6:53 PM 36.0 °F - 34.0 °F 93% 30.11 in 5.0 mi Calm Calm - N/A   Clear
7:53 PM 34.0 °F - 32.0 °F 92% 30.13 in 4.0 mi Calm Calm - N/A   Clear
8:07 PM 35.6 °F - 33.8 °F 93% 30.13 in 1.8 mi Calm Calm - N/A   Clear
8:16 PM 35.6 °F - 33.8 °F 93% 30.13 in 1.0 mi Calm Calm - N/A   Scattered Clouds
8:33 PM 33.8 °F - 33.8 °F 100% 30.13 in 2.0 mi Calm Calm - N/A   Mostly Cloudy
8:40 PM 35.6 °F - 33.8 °F 93% 30.13 in 3.0 mi Calm Calm - N/A   Overcast
8:42 PM 35.6 °F - 35.6 °F 100% 30.13 in 1.8 mi Calm Calm - N/A   Overcast
8:49 PM 35.6 °F - 35.6 °F 100% 30.13 in 1.0 mi Calm Calm - N/A   Overcast
8:53 PM 35.1 °F - 34.0 °F 96% 30.14 in 2.0 mi Calm Calm - N/A   Overcast
9:01 PM 35.6 °F - 35.6 °F 100% 30.14 in 7.0 mi Calm Calm - N/A   Overcast
9:41 PM 35.6 °F - 33.8 °F 93% 30.14 in 2.5 mi Calm Calm - N/A   Clear
9:48 PM 35.6 °F - 33.8 °F 93% 30.14 in 8.0 mi Calm Calm - N/A   Clear
9:53 PM 35.1 °F - 34.0 °F 96% 30.15 in 6.0 mi Calm Calm - N/A   Clear
10:06 PM 33.8 °F - 32.0 °F 93% 30.15 in 1.5 mi Calm Calm - N/A   Clear
10:10 PM 33.8 °F - 32.0 °F 93% 30.15 in 0.8 mi Calm Calm - N/A   Clear
10:20 PM 33.8 °F - 32.0 °F 93% 30.15 in 1.2 mi Calm Calm - N/A   Partly Cloudy
10:26 PM 32.0 °F - 30.2 °F 93% 30.15 in 2.0 mi Calm Calm - N/A   Clear
10:43 PM 30.2 °F - 30.2 °F 100% 30.16 in 4.0 mi Calm Calm - N/A   Clear
10:53 PM 30.9 °F - 30.0 °F 96% 30.17 in 2.5 mi Calm Calm - N/A   Clear
10:56 PM 30.2 °F - 30.2 °F 100% 30.16 in 1.2 mi Calm Calm - N/A   Clear